Latest Weather Observations for Amberley

IDQ60901

Issued at 11:35 pm EST Monday 1 September 2014 (issued every 10 minutes, with the page automatically refreshed every 10 minutes)

About weather observations | Map of Brisbane area stations | Latest observations for Brisbane area | Other Formats
Station Details ID: 040004 Name: AMBERLEY AMO Lat: -27.63 Lon: 152.71 Height: 24.2 m
Data from the previous 72 hours. | See also: Recent months at Amberley
Date/Time
EST
Tmp

°C
App
Tmp
°C
Dew
Point
°C
Rel
Hum
%
Delta-T

°C
Wind Press
QNH
hPa
Press
MSL
hPa
Rain
since
9 am
mm
Dir
 
Spd
km/h
Gust
km/h
Spd
kts
Gust
kts
01/11:30pm 11.6 11.9 10.8 95 0.4 SW 0 0 0 0 1015.5 - 0.0
01/11:00pm 11.9 12.2 10.9 94 0.5 CALM 0 0 0 0 1015.5 - 0.0
01/10:30pm 12.3 11.4 11.5 95 0.4 SW 7 9 4 5 1015.3 - 0.0
01/10:00pm 11.9 10.1 10.7 92 0.6 SW 11 13 6 7 1015.3 - 0.0
01/09:30pm 13.0 12.7 11.3 89 0.9 ENE 4 9 2 5 1015.3 - 0.0
01/09:00pm 16.4 15.9 13.7 84 1.5 E 9 13 5 7 1015.3 1015.2 0.0
01/08:30pm 16.9 16.0 13.7 81 1.8 E 11 13 6 7 1015.2 - 0.0
01/08:00pm 17.7 17.2 13.8 78 2.2 ENE 9 11 5 6 1015.2 - 0.0
01/07:30pm 18.0 16.7 13.8 76 2.4 ENE 13 17 7 9 1015.2 - 0.0
01/07:00pm 19.4 17.7 13.6 69 3.3 ENE 15 19 8 10 1015.0 - 0.0
01/06:30pm 20.4 18.4 12.8 61 4.3 ENE 15 19 8 10 1014.7 - 0.0
01/06:00pm 21.1 18.3 11.3 53 5.4 ENE 17 24 9 13 1014.3 1014.2 0.0
01/05:30pm 22.1 19.2 12.4 54 5.5 NE 19 26 10 14 1014.3 - 0.0
01/05:00pm 23.2 20.3 12.3 50 6.2 NE 19 26 10 14 1014.3 - 0.0
01/04:30pm 25.4 21.5 3.5 24 10.8 N 13 17 7 9 1014.0 - 0.0
01/04:00pm 26.1 22.3 4.1 24 11.0 N 13 20 7 11 1013.7 - 0.0
01/03:30pm 26.5 22.6 5.2 25 10.9 NNE 15 26 8 14 1013.6 - 0.0
01/03:00pm 26.2 21.6 5.6 26 10.6 N 19 22 10 12 1013.9 1013.8 0.0
01/02:30pm 26.5 22.4 6.1 27 10.6 WNW 17 26 9 14 1014.4 - 0.0
01/02:00pm 26.1 20.8 5.1 26 10.7 NNW 22 30 12 16 1014.8 - 0.0
01/01:30pm 25.7 22.3 5.9 28 10.2 WNW 13 24 7 13 1015.2 - 0.0
01/01:00pm 25.6 21.9 6.3 29 10.0 WNW 15 28 8 15 1016.0 - 0.0
01/12:30pm 24.7 21.3 7.7 33 9.0 WNW 15 28 8 15 1016.5 - 0.0
01/12:00pm 24.3 22.0 9.1 38 8.2 NW 11 17 6 9 1016.9 1016.8 0.0
01/11:30am 23.5 22.1 9.5 41 7.6 WNW 7 19 4 10 1017.5 - 0.0
01/11:00am 23.2 21.7 10.5 44 7.0 N 9 19 5 10 1018.0 - 0.0
01/10:30am 22.6 20.4 10.8 47 6.5 NNW 13 22 7 12 1018.7 - 0.0
01/10:00am 21.1 20.1 12.4 57 4.9 NW 9 17 5 9 1019.1 - 0.0
01/09:30am 20.1 19.7 13.0 63 4.0 WNW 7 13 4 7 1019.6 - 0.0
01/09:00am 19.6 20.2 14.2 71 3.1 W 4 9 2 5 1019.7 1019.6 0.0
01/08:30am 18.0 18.4 13.8 76 2.4 SW 4 7 2 4 1019.8 - 0.0
01/08:00am 16.2 17.3 13.5 84 1.5 CALM 0 7 0 4 1019.8 - 0.0
01/07:30am 14.5 15.4 13.0 91 0.8 CALM 0 2 0 1 1019.3 - 0.0
01/07:13am 13.5 13.6 12.6 94 0.5 WSW 4 7 2 4 1019.2 - 0.0
01/07:00am 12.3 12.8 11.7 96 0.3 CALM 0 0 0 0 1019.1 - 0.0
01/06:30am 10.7 10.8 10.3 97 0.2 CALM 0 0 0 0 1018.7 - 0.0
01/06:00am 11.4 11.7 11.0 97 0.2 NW 0 0 0 0 1018.7 1018.6 0.0
01/05:45am 11.4 11.7 11.0 97 0.2 CALM 0 0 0 0 1018.6 - 0.0
01/05:42am 11.5 11.8 10.9 96 0.3 CALM 0 0 0 0 1018.6 - 0.0
01/05:30am 11.2 11.4 10.4 95 0.4 CALM 0 0 0 0 1018.6 - 0.0
01/05:10am 12.0 12.4 11.4 96 0.3 CALM 0 0 0 0 1018.3 - 0.0
01/05:00am 12.3 12.8 11.5 95 0.4 CALM 0 0 0 0 1018.1 - 0.0
01/04:30am 13.3 14.1 12.4 94 0.5 CALM 0 0 0 0 1018.0 - 0.0
01/04:00am 13.6 13.6 12.3 92 0.7 NNW 4 6 2 3 1018.0 - 0.0
01/03:30am 14.1 13.6 12.8 92 0.7 NNW 7 9 4 5 1018.0 - 0.0
01/03:00am 14.6 15.5 12.8 89 1.0 CALM 0 0 0 0 1018.1 1018.0 0.0
01/02:30am 14.6 15.6 13.2 91 0.8 CALM 0 0 0 0 1018.2 - 0.0
01/02:00am 14.9 16.0 13.5 91 0.8 CALM 0 0 0 0 1018.3 - 0.0
01/01:30am 15.0 16.1 13.6 91 0.8 CALM 0 0 0 0 1018.5 - 0.0
01/01:00am 14.5 15.4 13.0 91 0.8 CALM 0 0 0 0 1018.5 - 0.0
01/12:30am 14.3 15.2 12.8 91 0.8 CALM 0 0 0 0 1018.6 - 0.0
01/12:00am 14.0 14.8 12.5 91 0.8 SSE 0 0 0 0 1018.7 1018.6 0.0
 
Date/Time
EST
Tmp

°C
App
Tmp
°C
Dew
Point
°C
Rel
Hum
%
Delta-T

°C
Wind Press
QNH
hPa
Press
MSL
hPa
Rain
since
9 am
mm
Dir
 
Spd
km/h
Gust
km/h
Spd
kts
Gust
kts
31/11:30pm 14.9 15.8 12.9 88 1.1 CALM 0 0 0 0 1018.7 - 0.0
31/11:00pm 15.9 15.9 13.6 86 1.3 S 6 6 3 3 1018.7 - 0.0
31/10:30pm 16.9 16.7 13.5 80 1.9 ESE 7 7 4 4 1018.6 - 0.0
31/10:00pm 17.4 16.8 13.5 78 2.2 E 9 11 5 6 1018.6 - 0.0
31/09:30pm 17.9 17.3 13.5 75 2.5 E 9 9 5 5 1018.5 - 0.0
31/09:00pm 18.4 17.4 13.3 72 2.9 E 11 15 6 8 1018.4 1018.4 0.0
31/08:30pm 18.6 17.1 13.1 70 3.1 ENE 13 19 7 10 1018.3 - 0.0
31/08:00pm 18.7 16.3 12.8 68 3.3 ENE 17 24 9 13 1018.0 - 0.0
31/07:30pm 18.7 15.8 12.2 66 3.6 ENE 19 26 10 14 1017.8 - 0.0
31/07:00pm 18.7 15.6 12.2 66 3.6 ENE 20 30 11 16 1017.2 - 0.0
31/06:30pm 19.3 15.7 11.9 62 4.1 NE 22 30 12 16 1016.8 - 0.0
31/06:00pm 19.8 16.4 11.2 57 4.7 NE 20 30 11 16 1016.4 1016.4 0.0
31/05:30pm 20.6 15.8 10.2 51 5.6 NE 26 33 14 18 1016.0 - 0.0
31/05:00pm 21.7 16.8 9.9 47 6.4 NE 26 32 14 17 1015.6 - 0.0
31/04:30pm 23.9 21.5 8.8 38 8.1 S 11 28 6 15 1015.1 - 0.0
31/04:00pm 24.3 22.5 7.3 33 8.9 SE 6 13 3 7 1014.8 - 0.0
31/03:30pm 25.3 22.6 7.3 31 9.5 SE 11 13 6 7 1014.7 - 0.0
31/03:00pm 25.0 22.8 7.9 33 9.1 E 9 13 5 7 1014.8 1014.8 0.0
31/02:30pm 24.8 23.0 7.8 33 9.0 SSW 7 11 4 6 1014.9 - 0.0
31/02:00pm 25.0 23.4 7.9 33 9.1 W 6 15 3 8 1015.2 - 0.0
31/01:30pm 25.5 22.6 8.1 33 9.3 WNW 13 19 7 10 1015.5 - 0.0
31/01:00pm 24.1 22.4 8.3 36 8.4 SW 7 13 4 7 1016.0 - 0.0
31/12:30pm 23.5 21.8 8.5 38 8.0 WSW 7 17 4 9 1016.5 - 0.0
31/12:00pm 23.5 20.9 7.9 36 8.2 NW 11 19 6 10 1017.0 1017.0 0.0
31/11:30am 22.9 21.3 8.6 40 7.6 S 7 13 4 7 1017.6 - 0.0
31/11:00am 22.1 20.2 8.9 43 7.0 WNW 9 17 5 9 1018.1 - 0.0
31/10:30am 21.3 19.7 8.8 44 6.6 SSE 7 13 4 7 1018.6 - 0.0
31/10:00am 21.5 20.0 9.3 45 6.5 N 7 13 4 7 1018.9 - 0.0
31/09:30am 19.8 18.0 9.4 51 5.5 WNW 9 17 5 9 1019.1 - 0.0
31/09:00am 18.9 17.5 9.4 54 5.0 WNW 7 11 4 6 1019.2 1019.2 0.0
31/08:30am 17.2 16.0 10.4 64 3.6 NW 7 11 4 6 1019.5 - 0.0
31/08:00am 15.5 14.7 11.2 75 2.3 SW 6 7 3 4 1019.4 - 0.0
31/07:30am 12.9 12.7 10.6 86 1.2 WNW 2 7 1 4 1019.2 - 0.0
31/07:00am 10.6 10.6 9.8 95 0.4 CALM 0 0 0 0 1019.2 - 0.0
31/06:30am 9.3 9.0 8.5 95 0.4 CALM 0 0 0 0 1018.9 - 0.0
31/06:25am 9.2 8.9 8.6 96 0.3 CALM 0 0 0 0 1018.9 - 0.0
31/06:00am 8.7 8.3 8.1 96 0.3 CALM 0 0 0 0 1018.8 1018.8 0.0
31/05:59am 8.8 8.4 8.4 97 0.2 CALM 0 0 0 0 1018.8 - 0.0
31/05:30am 10.2 10.1 9.4 95 0.4 CALM 0 0 0 0 1018.3 - 0.0
31/05:00am 10.5 10.4 9.3 92 0.6 CALM 0 0 0 0 1018.2 - 0.0
31/04:30am 11.3 11.3 9.7 90 0.8 CALM 0 0 0 0 1018.1 - 0.0
31/04:00am 11.7 10.4 10.1 90 0.8 NNW 7 9 4 5 1018.1 - 0.0
31/03:30am 11.5 11.6 10.1 91 0.7 CALM 0 0 0 0 1018.0 - 0.0
31/03:00am 11.7 11.4 10.1 90 0.8 NW 2 9 1 5 1018.0 1018.0 0.0
31/02:30am 11.8 11.9 10.0 89 0.9 CALM 0 0 0 0 1018.1 - 0.0
31/02:00am 12.1 12.2 10.1 87 1.0 CALM 0 0 0 0 1018.1 - 0.0
31/01:30am 12.2 12.4 10.5 89 0.9 CALM 0 0 0 0 1018.1 - 0.0
31/01:00am 12.4 11.3 10.5 88 1.0 NW 7 9 4 5 1018.2 - 0.0
31/12:30am 11.8 11.9 10.2 90 0.8 CALM 0 0 0 0 1018.5 - 0.0
31/12:00am 11.7 11.7 9.7 87 1.0 CALM 0 0 0 0 1018.5 1018.5 0.0
 
Date/Time
EST
Tmp

°C
App
Tmp
°C
Dew
Point
°C
Rel
Hum
%
Delta-T

°C
Wind Press
QNH
hPa
Press
MSL
hPa
Rain
since
9 am
mm
Dir
 
Spd
km/h
Gust
km/h
Spd
kts
Gust
kts
30/11:30pm 12.4 12.4 9.9 85 1.3 CALM 0 0 0 0 1018.6 - 0.0
30/11:00pm 12.9 12.9 9.8 81 1.6 CALM 0 0 0 0 1018.5 - 0.0
30/10:30pm 12.7 12.4 10.0 84 1.4 NNW 2 9 1 5 1018.5 - 0.0
30/10:00pm 12.5 11.4 10.0 85 1.3 NW 6 7 3 4 1018.5 - 0.0
30/09:30pm 11.9 11.8 9.5 85 1.2 CALM 0 0 0 0 1018.3 - 0.0
30/09:00pm 12.4 11.5 9.2 81 1.6 E 4 7 2 4 1018.2 1018.2 0.0
30/08:30pm 13.2 11.7 9.0 75 2.1 E 7 7 4 4 1018.2 - 0.0
30/08:00pm 15.1 13.6 9.0 67 3.1 ESE 7 9 4 5 1018.0 - 0.0
30/07:30pm 16.0 14.1 9.2 64 3.5 E 9 11 5 6 1017.7 - 0.0
30/07:00pm 17.8 16.5 9.2 57 4.5 ENE 6 7 3 4 1017.3 - 0.0
30/06:30pm 18.5 15.7 8.7 53 5.1 NE 13 19 7 10 1017.0 - 0.0
30/06:00pm 19.1 15.5 8.2 49 5.6 NE 17 24 9 13 1017.0 1017.0 0.0
30/05:30pm 20.1 15.8 7.9 45 6.3 ENE 20 26 11 14 1016.6 - 0.0
30/05:00pm 21.3 18.0 8.1 42 6.9 ESE 15 19 8 10 1016.3 - 0.0
30/04:30pm 22.4 19.8 7.6 38 7.7 E 11 15 6 8 1016.0 - 0.0
30/04:00pm 23.3 20.9 6.8 34 8.5 S 9 13 5 7 1015.8 - 0.0
30/03:30pm 23.2 19.3 6.9 35 8.4 SE 17 22 9 12 1015.7 - 0.0
30/03:00pm 24.5 20.2 6.8 32 9.2 SW 19 26 10 14 1015.7 1015.7 0.0
30/02:30pm 22.7 19.4 6.2 34 8.4 S 13 26 7 14 1015.9 - 0.0
30/02:00pm 23.5 20.6 6.6 33 8.7 SSE 11 24 6 13 1016.2 - 0.0
30/01:30pm 23.3 20.8 6.5 34 8.6 SE 9 15 5 8 1016.6 - 0.0
30/01:00pm 22.5 19.6 6.7 36 8.1 WSW 11 19 6 10 1017.1 - 0.0
30/12:30pm 23.1 20.6 6.5 34 8.5 SW 9 19 5 10 1017.6 - 0.0
30/12:00pm 22.1 18.3 6.0 35 8.1 SW 15 26 8 14 1018.2 1018.2 0.0
30/11:30am 20.9 17.5 6.1 38 7.4 S 13 20 7 11 1018.7 - 0.0
30/11:00am 20.6 18.0 6.2 39 7.2 WSW 9 13 5 7 1019.2 - 0.0
30/10:30am 19.3 17.1 8.0 48 5.8 WNW 9 15 5 8 1019.7 - 0.0
30/10:00am 18.0 16.3 7.7 51 5.2 NW 6 13 3 7 1019.9 - 0.0
30/09:30am 16.1 14.3 7.9 58 4.1 WSW 7 11 4 6 1020.4 - 0.0
30/09:00am 14.7 13.8 7.9 63 3.4 S 2 7 1 4 1020.7 1020.8 0.0
30/08:30am 12.8 11.2 7.9 72 2.4 WNW 6 7 3 4 1020.7 - 0.0
30/08:00am 10.6 9.8 8.3 86 1.1 NW 2 7 1 4 1020.9 - 0.0
30/07:30am 8.7 8.1 7.6 93 0.5 CALM 0 0 0 0 1020.8 - 0.0
30/07:15am 7.7 7.0 6.8 94 0.4 CALM 0 0 0 0 1020.7 - 0.0
30/07:00am 5.6 4.1 4.9 95 0.3 WNW 2 7 1 4 1020.7 - 0.0
30/06:30am 3.2 1.3 2.7 96 0.2 SW 2 7 1 4 1020.5 - 0.0
30/06:26am 3.1 0.4 2.8 98 0.1 SW 6 7 3 4 1020.4 - 0.0
30/06:17am 4.3 2.5 3.6 95 0.3 WNW 2 7 1 4 1020.3 - 0.0
30/06:00am 4.1 2.7 3.6 97 0.2 CALM 0 0 0 0 1020.0 1020.1 0.0
30/05:54am 4.2 2.8 3.7 97 0.2 CALM 0 0 0 0 1020.0 - 0.0
30/05:30am 4.8 3.5 4.3 97 0.2 CALM 0 4 0 2 1019.6 - 0.0
30/05:19am 5.0 2.4 4.3 95 0.3 NNW 7 9 4 5 1019.4 - 0.0
30/05:00am 4.2 2.8 3.7 97 0.2 CALM 0 0 0 0 1019.4 - 0.0
30/04:30am 4.0 2.6 3.8 99 0.1 CALM 0 0 0 0 1019.4 - 0.0
30/04:22am 4.3 2.9 3.8 97 0.2 CALM 0 0 0 0 1019.4 - 0.0
30/04:00am 5.5 3.2 4.8 95 0.3 SSW 6 7 3 4 1019.4 - 0.0
30/03:30am 5.9 3.5 5.2 95 0.3 SSW 7 9 4 5 1019.4 - 0.0
30/03:00am 5.5 4.3 4.8 95 0.3 CALM 0 0 0 0 1019.3 1019.3 0.0
30/02:30am 6.3 5.3 5.6 95 0.3 CALM 0 0 0 0 1019.5 - 0.0
30/02:00am 5.8 4.7 5.3 97 0.2 CALM 0 0 0 0 1019.6 - 0.0
30/01:30am 7.3 6.5 6.6 95 0.3 CALM 0 0 0 0 1019.9 - 0.0
30/01:00am 6.2 4.5 5.7 97 0.2 NNW 4 9 2 5 1020.0 - 0.0
30/12:30am 7.6 6.8 6.7 94 0.4 CALM 0 0 0 0 1020.2 - 0.0
30/12:00am 8.1 7.4 6.8 91 0.6 CALM 0 0 0 0 1020.1 1020.2 0.0

Latest Capital City Observations: Canberra | Sydney | Melbourne | Brisbane | Adelaide | Perth | Hobart | Darwin

Other Formats:

Comma delimited format used in spreadsheet applications
http://www.bom.gov.au/fwo/IDQ60901/IDQ60901.94568.axf

JavaScript Object Notation format (JSON) in row-major order
http://www.bom.gov.au/fwo/IDQ60901/IDQ60901.94568.json